CZ-5 R/B

Last updated on Jan. 16, 2020, 12:02 a.m. UTC

1 44911U 19097B   20013.44239154  .00000215  00000-0  96334-3 0  9999
2 44911  17.7846 305.0972 8467583 199.4953  76.1597  0.96004159   178

Satellite is not in orbit.